Location: *
(51.0333°S, 178.4667°E)
Time: 02:54:03
(UTC+00:00)

Cosmos 2263 Rocket - Pass Details

Date: 15 November 2019
Orbit: 825 x 847 km, 71.0° (Epoch: 05 December)

Event Time Altitude Azimuth Distance (km) Brightness Sun altitude
Exits shadow 11:07:34 23° 322° (NW) 1,722 3.4 -19.9°
Maximum altitude 11:11:12 76° 239° (WSW) 882 2.3 -20.0°
Drops below altitude 10° 11:16:59 10° 152° (SSE) 2,502 5.4 -20.1°
Sets 11:19:28 0° 150° (SSE) 3,446 6.2 -20.2°
